Location: Falniów
(50.3639°N, 19.9642°E)
Time: 13:44:26
(UTC+00:00)

Cosmos 2082 Rocket - Pass Details

Date: 19 April 2026
Orbit: 831 x 853 km, 71.0° (Epoch: 19 May)

Event Time Altitude Azimuth Distance (km) Brightness Sun altitude
Exits shadow 23:47:16 46° 124° (ESE) 1,133 2.7 -26.4°
Maximum altitude 23:47:42 47° 110° (ESE) 1,120 2.7 -26.4°
Drops below altitude 10° 23:53:09 10° 38° (NE) 2,493 5.6 -26.1°
Sets 23:55:41 0° 33° (NNE) 3,433 6.6 -26.0°
